User: anonymous   Login
Location: Cluny
(50.9333°N, 112.8167°W)
Time: 09:26:40
(UTC-06:00)
Language:

Cosmos 1743 Rocket - Orbit

View from above orbital plane
View from above orbital plane
View from above satellite
View from above satellite

Ground track
Ground track

The orbit data is extracted from the following two-line orbital elements,

1 16720U 86034B   17295.96587240 +.00000097 +00000-0 +87971-5 0  9995
2 16720 082.5512 122.3799 0021256 043.2951 108.4825 14.83308765677119
Epoch (UTC): 22 October 2017 23:10:51
Eccentricity: 0.0021256
inclination: 82.5512°
perigee height: 604 km
apogee height: 634 km
right ascension of ascending node: 122.3799°
argument of perigee: 43.2951°
revolutions per day: 14.83308765
mean anomaly at epoch: 108.4825°
orbit number at epoch: 67711

The dashed part of the orbit path shows where the satellite is in the earth's shadow,  

DLR